Greenville, ME

9:06 AM EST on December 15, 2019 (GMT -0500)
Greenville

Weather History for KGNR - August, 2019

Change the Weather History Date:

Wednesday, August 28, 2019

  Actual Average (WUND) Record (WUND)
Temperature  
Mean Temperature 64 °F -  
Max Temperature 73 °F - - (-1)
Min Temperature 54 °F - - (-1)
Degree Days  
Heating Degree Days 2    
Growing Degree Days 14 (Base 50)    
Moisture  
Dew Point 54 °F    
Average Humidity 76    
Maximum Humidity 96    
Minimum Humidity 60    
Precipitation  
Precipitation 0.56 in - - ()
Sea Level Pressure  
Sea Level Pressure 29.94 in    
Wind  
Wind Speed 5 mph ()    
Max Wind Speed 10 mph    
Max Gust Speed 17 mph    
Averages and records for this station are not official NWS values.
T = Trace of Precipitation, MM = Missing Value Source: Averaged Metar Reports

Daily Weather History Graph

Daily Weather History Graph

Search for Another Location

Airport or City:

Astronomy

Aug. 28, 2019 Rise Set
Actual Time 5:54 AM EDT 7:23 PM EDT
Civil Twilight 5:23 AM EDT 7:54 PM EDT
Nautical Twilight 4:46 AM EDT 8:31 PM EDT
Astronomical Twilight 4:05 AM EDT 9:11 PM EDT
Moon 3:13 AM EDT (8/28) 6:40 PM EDT (8/28)
Length of Visible Light 14h 31m
Length of Day
13h 29m
Waning Crescent, 5% of the Moon is Illuminated
Aug 28
Waning Crescent
Aug 30
New
Sep 5
First Quarter
Sep 14
Full
Sep 21
Last Quarter

Hourly Weather History & Observations

Time (EDT) Temp. Dew Point Humidity Pressure Visibility Wind Dir Wind Speed Gust Speed Precip Events Conditions
12:56 AM 59.0 °F 54.0 °F 83% 29.98 in - SE 5.8 mph - N/A   Unknown
1:56 AM 57.0 °F 53.1 °F 87% 29.98 in - Calm Calm - N/A   Unknown
2:56 AM 55.9 °F 54.0 °F 93% 29.97 in - ESE 5.8 mph - N/A   Unknown
3:56 AM 55.0 °F 52.0 °F 89% 29.96 in - East 3.5 mph - N/A   Unknown
4:56 AM 54.0 °F 51.1 °F 90% 29.96 in - ESE 4.6 mph - N/A   Unknown
5:56 AM 55.9 °F 52.0 °F 87% 29.96 in - SE 4.6 mph - N/A   Unknown
6:56 AM 55.9 °F 54.0 °F 93% 29.97 in - SE 6.9 mph - N/A   Unknown
8:56 AM 64.0 °F 55.0 °F 73% 29.96 in - Variable 4.6 mph - N/A   Unknown
9:56 AM 66.0 °F 57.0 °F 73% 29.96 in - SE 6.9 mph - N/A   Unknown
10:56 AM 68.0 °F 57.0 °F 68% 29.95 in - Variable 6.9 mph - N/A   Unknown
11:56 AM 69.1 °F 57.0 °F 65% 29.95 in - Variable 5.8 mph - N/A   Unknown
12:56 PM 69.1 °F 55.9 °F 63% 29.95 in - South 8.1 mph - N/A   Unknown
2:56 PM 71.1 °F 57.9 °F 63% 29.93 in - SE 6.9 mph 16.1 mph N/A   Unknown
3:56 PM 73.0 °F 59.0 °F 61% 29.91 in - Variable 6.9 mph 17.3 mph N/A   Unknown
4:56 PM 72.0 °F 59.0 °F 64% 29.92 in - SSE 8.1 mph - N/A   Unknown
5:56 PM 70.0 °F 59.0 °F 68% 29.91 in - SSE 8.1 mph - N/A   Unknown
6:56 PM 66.0 °F 54.0 °F 65% 29.92 in - SE 9.2 mph - N/A   Unknown
7:56 PM 64.0 °F 50.0 °F 60% 29.92 in - SSE 10.4 mph 16.1 mph N/A   Unknown
8:56 PM 62.1 °F 48.0 °F 60% 29.93 in - SE 8.1 mph - N/A   Unknown
9:56 PM 57.9 °F 51.1 °F 78% 29.92 in - SE 10.4 mph - 0.02 in   Unknown
10:56 PM 55.0 °F 54.0 °F 96% 29.89 in - East 6.9 mph - 0.30 in   Unknown
11:56 PM 55.9 °F 54.0 °F 93% 29.88 in - ESE 5.8 mph - 0.24 in   Unknown